Wind_Speed
19 18 18 17 17 16 16 16 16 15 15 17 17 16 14 11 10 10 9 10 9 6 5 4 6 6 6 6 7 7 7 8 9 9 10 10 11 11 12 13 12 12 12 13 14 15 15 15 14 15 15 15 15 15 14 13 13 13 13 13 13 13 13 13 12 12 12 12 12 12 12 13 13 13 14 14 14 15 15 15 15 16 16 16 16
19 19 18 17 16 16 16 15 13 13 14 16 17 15 13 11 10 9 10 11 10 7 5 5 5 6 7 7 6 6 7 9 10 10 11 11 12 12 13 13 12 11 12 12 13 14 15 14 15 15 15 15 15 15 14 13 13 12 12 13 13 13 13 13 12 12 12 12 12 12 12 13 13 13 13 13 14 14 14 14 15 15 15 16 16
20 20 18 16 16 15 15 15 13 13 14 16 16 14 12 11 10 9 10 11 11 9 6 6 5 5 7 7 7 7 8 9 9 10 11 11 12 13 12 11 11 11 11 11 11 12 13 13 14 14 14 15 15 15 14 13 13 12 12 12 12 12 12 12 12 12 12 12 12 12 12 12 12 12 12 13 13 13 14 14 14 15 15 16 16
19 19 17 16 15 15 15 14 13 13 14 15 15 14 11 10 10 10 10 12 12 10 8 7 6 5 6 7 7 7 8 9 8 9 10 11 12 12 10 9 9 10 9 9 9 9 10 12 12 13 13 14 14 14 14 13 13 12 11 11 11 11 11 11 11 11 12 12 12 12 12 12 12 12 12 12 13 13 13 13 13 13 14 14 15
18 17 16 15 15 15 14 13 12 12 14 16 15 12 10 10 10 10 11 12 12 11 9 7 6 6 6 6 6 7 8 8 7 8 9 11 12 10 8 8 8 8 9 8 8 7 8 9 11 11 12 12 13 13 13 12 12 11 11 11 11 11 10 10 11 11 11 11 11 11 11 11 11 11 11 11 11 11 11 11 11 11 12 13 14
17 16 16 15 15 15 14 12 11 12 15 16 14 12 10 10 10 11 12 14 13 11 10 8 7 7 6 6 6 7 8 7 7 7 9 11 11 9 8 8 8 8 8 7 7 6 6 7 8 9 10 11 11 11 12 11 11 10 10 10 10 10 10 10 10 10 10 11 11 11 10 10 10 10 9 9 9 9 9 10 10 10 11 11 12
16 15 15 16 16 16 13 11 10 11 14 17 16 14 12 11 11 13 15 16 15 13 12 9 7 7 7 7 6 7 7 7 7 7 8 10 9 8 7 8 8 7 6 7 6 5 6 7 7 7 8 9 9 10 10 10 10 9 9 9 9 10 10 10 10 10 10 9 9 9 9 9 9 8 8 8 8 8 8 8 8 8 9 9 10
15 15 15 16 16 15 12 10 10 10 12 15 15 14 13 12 11 14 17 18 17 15 12 10 9 8 7 7 6 6 7 7 7 7 8 8 8 7 6 7 7 6 7 8 6 5 6 6 6 6 7 8 8 9 9 9 9 8 9 9 9 9 9 9 9 9 8 8 8 8 8 8 8 8 7 7 6 6 6 7 7 8 8 8 8
15 15 15 15 15 13 11 11 10 10 12 13 12 12 13 13 12 12 15 16 15 13 11 9 9 8 7 7 6 6 7 7 7 7 7 8 7 6 6 6 6 6 7 7 5 4 6 6 6 6 7 8 8 8 8 8 8 8 8 8 8 8 8 8 8 8 7 7 7 7 7 7 7 6 5 4 5 5 6 6 6 7 7 8 8
16 16 16 15 15 14 12 12 12 11 12 13 13 13 13 14 14 14 14 14 14 13 11 9 8 8 7 7 6 6 7 7 7 7 7 8 7 6 6 6 5 6 6 5 4 4 5 6 6 7 8 8 8 8 8 7 7 7 7 7 7 7 7 7 7 7 7 7 7 7 6 6 5 4 4 4 5 5 5 5 6 6 7 7 7
17 17 17 16 15 14 13 13 13 13 12 13 13 13 13 13 14 14 14 14 14 13 11 9 8 7 7 7 7 6 7 7 7 7 7 8 7 6 5 5 5 5 5 4 4 4 4 6 7 8 8 9 8 8 8 7 7 7 6 6 6 6 6 6 6 6 7 6 6 6 5 5 4 4 4 4 4 4 4 5 6 6 6 7 7
17 17 17 16 15 15 15 14 13 13 13 13 13 13 13 12 12 13 14 14 14 12 10 8 8 7 7 7 7 7 7 7 8 8 8 8 7 5 4 4 5 5 5 5 4 3 3 6 8 8 8 8 8 7 7 7 7 6 6 6 5 5 5 6 6 6 6 6 5 5 5 5 5 5 5 4 4 4 4 5 5 6 6 6 6
17 16 16 16 14 14 15 15 14 13 12 13 14 14 14 13 13 14 14 15 14 11 9 8 8 7 7 8 8 7 7 8 8 8 8 8 8 6 6 6 6 6 4 4 4 2 2 4 6 8 9 9 9 8 7 7 6 6 6 6 5 5 5 5 5 5 5 6 6 6 6 6 5 5 5 4 5 5 5 5 5 6 6 6 7
16 15 15 15 14 14 15 16 15 12 11 12 13 14 14 14 15 15 15 15 13 11 10 9 9 8 8 8 8 8 8 9 9 9 8 8 8 8 8 8 7 6 4 3 3 3 2 3 5 7 8 9 9 8 7 6 6 6 6 6 5 5 5 5 5 6 6 6 6 6 6 6 5 5 5 5 5 5 5 6 6 6 6 6 7
15 15 15 15 14 15 16 17 16 13 12 12 14 14 14 15 16 16 16 15 13 12 11 10 10 9 9 9 9 9 9 9 9 9 9 9 9 8 8 8 7 6 5 4 3 3 3 3 4 5 6 7 7 7 7 6 6 6 6 6 5 5 5 5 6 7 6 7 7 6 6 6 5 5 5 5 5 5 6 6 6 6 6 7 7
16 16 15 15 15 16 17 17 17 15 14 14 14 14 15 15 16 16 16 15 13 12 12 11 11 10 10 10 9 9 9 9 9 9 9 9 9 10 9 8 7 6 6 5 5 5 4 4 4 5 6 6 6 7 6 6 6 6 6 5 6 6 7 7 8 8 7 7 7 6 6 6 5 5 5 5 6 6 6 6 6 6 6 7 7
17 16 15 16 16 17 17 17 18 16 15 15 14 14 16 17 17 17 16 14 13 13 13 13 12 11 11 11 10 9 9 9 9 9 9 10 10 11 10 10 10 9 8 7 7 7 6 6 6 6 6 6 7 7 7 7 6 6 6 6 7 8 9 8 8 8 7 7 7 6 6 6 6 6 6 6 6 6 7 7 6 6 7 8 8
17 16 15 16 17 18 18 18 18 17 16 15 14 15 18 19 19 18 16 14 14 15 15 14 13 12 12 12 10 10 10 10 10 10 10 10 11 12 12 12 12 11 9 9 8 8 8 8 8 7 7 8 8 8 8 8 7 7 7 7 8 9 10 9 9 8 8 8 7 7 6 6 6 6 6 7 7 7 8 7 7 7 8 9 9
16 16 16 16 18 19 18 18 18 17 16 16 16 18 19 20 20 19 17 16 16 16 15 15 14 13 13 13 11 11 10 10 10 10 11 11 11 12 12 13 13 12 12 11 10 10 10 10 9 9 9 9 9 8 8 9 8 8 8 9 9 10 10 10 9 9 8 8 7 7 7 6 6 6 7 7 8 8 8 8 7 8 9 9 10
16 16 17 18 18 18 18 18 18 18 17 17 18 20 21 21 21 20 18 17 17 17 16 16 16 14 14 14 12 12 11 11 11 12 12 12 12 12 13 13 13 13 13 13 12 12 12 11 11 10 10 10 10 10 10 10 10 9 10 10 10 10 10 10 9 9 8 8 8 8 7 7 7 7 7 7 8 8 8 8 8 9 9 10 10
18 18 19 20 19 18 18 19 19 18 18 18 20 21 22 22 22 21 19 18 18 18 18 18 17 16 15 14 13 13 12 12 13 13 13 13 13 12 13 13 13 14 14 14 14 13 13 13 12 12 12 12 11 11 11 11 11 10 11 11 11 11 11 10 10 9 9 9 9 9 8 8 7 7 7 8 8 9 9 10 10 10 11 11 11
20 21 22 22 21 20 20 20 20 19 19 19 21 22 23 23 23 21 20 19 19 20 19 18 18 17 15 14 14 14 14 14 15 15 14 13 13 13 13 13 13 14 15 15 15 14 14 14 13 13 13 12 12 12 11 11 11 11 11 12 11 11 11 10 10 10 10 10 9 9 9 9 8 8 8 8 9 10 11 11 11 11 12 12 12
21 22 24 24 23 22 21 21 20 19 19 20 21 22 22 23 22 21 21 21 20 20 20 19 18 17 15 15 15 15 15 15 16 15 15 14 14 14 14 14 14 15 15 15 15 15 15 14 14 13 13 13 12 12 11 11 11 11 12 12 11 11 11 11 11 11 11 10 9 9 9 10 10 10 9 10 10 11 12 12 13 13 13 13 13
21 22 24 25 24 23 22 21 20 19 19 20 20 21 22 23 22 22 21 21 21 21 21 20 19 17 16 16 16 16 16 16 16 16 15 14 14 14 15 15 15 16 16 15 16 16 15 15 14 14 13 13 13 12 12 11 11 12 12 12 12 11 12 12 12 12 11 11 10 10 10 10 11 11 11 11 11 12 12 13 13 13 14 14 14
22 23 24 25 25 24 23 22 21 19 20 20 21 21 22 22 22 22 21 22 22 22 22 21 20 18 17 17 16 16 17 17 17 17 16 15 14 14 14 15 16 17 17 16 16 16 16 15 15 15 14 14 14 13 12 12 12 12 12 12 12 13 13 13 13 13 13 12 12 11 11 11 12 13 13 13 13 13 13 13 14 14 15 15 15
22 23 24 24 25 25 24 22 21 20 21 22 22 22 22 22 23 23 22 22 23 23 23 22 20 19 18 17 17 17 17 17 17 17 16 15 14 14 15 16 17 18 18 17 16 16 16 16 16 16 15 15 15 14 14 13 13 13 13 13 13 14 14 14 14 14 14 13 13 12 12 13 13 14 14 14 14 14 14 14 15 15 16 16 17
23 24 24 25 26 26 25 24 23 22 22 23 22 22 21 22 22 23 23 23 23 23 22 22 21 20 19 18 18 18 18 18 17 16 15 15 15 15 15 17 18 19 19 18 17 17 17 17 17 16 16 16 16 15 14 14 13 13 13 13 13 14 14 14 15 15 15 15 14 14 14 14 15 15 16 16 16 15 16 16 16 17 17 17 18
24 25 26 26 26 26 26 25 24 24 24 24 23 22 22 22 22 23 23 23 23 22 22 22 21 20 19 18 18 18 18 18 17 16 15 15 16 16 17 18 19 20 20 19 18 18 18 18 18 17 17 16 16 16 15 15 14 14 13 13 14 14 14 15 15 16 16 16 16 15 15 16 16 17 17 17 17 17 17 18 18 19 19 19 19
24 26 27 27 27 27 27 27 25 25 25 25 24 23 22 22 22 22 22 22 22 22 22 22 21 20 19 19 19 19 18 18 17 16 16 17 17 17 18 19 20 20 20 19 18 18 18 18 18 18 18 17 17 16 16 16 15 14 14 14 14 15 15 16 16 17 17 17 17 17 17 17 18 18 19 19 19 19 19 20 20 20 20 20 21
25 27 27 28 28 28 28 27 26 27 27 26 24 23 22 22 22 22 22 21 22 22 22 22 21 20 20 19 19 19 19 17 16 16 17 18 19 19 19 20 20 20 19 18 17 18 18 18 19 19 18 18 17 17 17 17 16 16 16 16 16 16 16 17 17 18 18 18 19 19 19 19 19 20 20 20 21 21 21 21 21 22 22 22 22
27 29 28 29 30 29 29 28 28 28 27 25 23 23 23 22 21 21 21 21 22 22 23 22 22 21 20 20 20 20 19 18 17 17 18 19 19 19 20 20 21 20 19 17 17 18 18 19 19 19 19 19 19 18 18 18 18 18 18 18 18 18 18 19 19 19 20 20 21 21 21 21 21 21 22 22 22 22 22 23 23 23 23 23 24
27 28 28 28 30 30 29 29 29 28 26 24 22 23 23 22 21 21 21 21 22 23 23 23 22 22 21 21 20 20 19 19 18 18 19 19 19 19 20 20 21 20 19 17 17 18 20 20 20 19 20 20 20 19 19 19 19 20 20 20 20 20 20 21 21 22 22 23 23 23 23 23 23 23 23 23 24 24 24 24 24 24 24 24 25
27 27 27 27 28 29 28 29 29 28 25 23 22 23 23 21 21 21 21 21 22 23 23 24 23 23 22 21 21 20 20 19 19 18 19 19 19 19 20 20 21 21 19 17 17 19 20 21 21 21 21 21 21 21 21 21 21 22 22 23 23 23 23 24 24 24 24 25 25 25 25 25 25 25 25 25 25 26 26 26 26 25 25 26 26
28 28 27 27 27 27 27 29 30 28 25 24 23 23 23 22 21 21 21 21 22 22 23 24 24 24 23 22 21 20 20 20 19 18 19 19 19 19 19 20 21 21 19 18 18 19 21 22 22 21 21 22 22 22 22 23 23 24 24 25 25 25 25 26 26 26 26 26 27 27 27 27 27 27 28 27 27 27 28 28 27 27 28 28 29
27 27 27 27 27 26 27 28 29 28 25 24 23 24 23 23 22 22 21 21 21 22 23 23 24 24 23 22 20 20 20 19 19 19 19 18 18 19 19 20 20 20 20 19 19 20 21 22 22 21 21 22 22 23 23 24 24 25 26 26 27 27 28 28 28 28 28 28 29 30 30 30 30 31 30 30 29 29 30 30 30 30 31 32 32
25 26 27 27 26 26 28 29 27 25 24 23 23 24 24 24 23 22 22 21 21 22 22 23 23 23 23 22 20 20 20 19 19 18 18 17 17 18 18 19 19 20 20 20 20 20 21 21 21 21 22 22 23 23 24 24 25 26 27 27 28 29 30 30 31 31 31 31 32 32 33 33 33 33 32 32 32 32 32 32 33 34 34 35 36
25 26 27 26 26 27 30 30 28 26 24 24 24 25 25 25 24 23 22 21 21 21 23 23 23 23 22 21 21 20 20 20 19 18 18 18 18 18 18 19 19 20 20 21 21 21 21 21 22 22 23 23 24 24 24 24 25 26 27 28 28 30 31 31 32 33 33 34 34 35 35 35 34 34 34 34 33 34 34 35 36 37 38 38 39
26 27 27 27 28 29 30 31 30 29 27 26 26 27 27 26 25 23 21 20 21 22 23 24 23 22 22 21 21 22 22 21 20 20 20 20 19 19 18 18 19 20 20 21 21 21 21 21 22 23 23 24 24 25 25 25 26 27 29 29 30 30 31 31 33 34 34 35 36 36 36 36 35 35 35 35 35 35 37 38 39 39 40 41 41
27 28 28 27 27 29 31 31 31 30 30 28 27 27 27 26 24 22 21 21 22 23 24 23 22 22 22 22 23 24 23 22 21 21 21 21 20 19 18 19 21 22 22 21 22 22 22 23 24 25 25 25 26 26 27 28 29 30 31 30 30 31 31 32 33 34 35 36 36 37 36 36 36 36 36 36 36 37 39 40 40 41 42 43 44
28 28 27 26 27 29 31 31 31 31 30 28 26 26 26 25 23 22 22 22 23 23 23 23 22 23 23 24 24 24 23 21 20 20 20 19 19 19 19 21 22 23 23 22 22 23 23 24 25 26 27 27 28 29 29 30 31 32 32 31 31 32 32 32 33 34 36 36 36 36 35 35 36 36 36 36 36 38 40 41 41 42 43 44 45
28 26 26 27 28 30 32 31 31 29 28 26 26 26 25 25 23 23 23 23 23 23 23 23 23 23 24 24 24 23 21 18 17 18 19 19 19 19 20 22 23 23 23 23 23 24 24 25 26 27 28 30 30 31 31 32 33 33 34 33 33 34 34 32 32 34 36 35 34 34 33 35 36 37 37 37 37 39 41 41 42 43 45 47 47
29 25 25 27 29 31 33 33 31 28 27 26 25 25 26 25 24 23 24 24 24 24 24 24 23 23 23 23 22 22 22 20 19 20 20 21 21 22 22 23 23 22 22 22 23 23 24 25 26 27 29 30 31 32 33 34 35 35 35 34 33 34 34 32 31 32 33 34 34 33 34 36 37 38 39 39 40 42 43 43 44 45 47 48 49
30 25 23 26 28 30 32 31 29 28 27 27 26 26 27 25 24 24 25 26 25 24 25 25 24 23 23 23 22 23 23 23 23 23 23 23 24 24 23 22 21 21 21 21 22 22 23 24 26 27 29 30 31 32 33 34 34 35 35 34 33 32 32 32 30 30 32 34 35 34 34 36 38 38 39 41 42 43 44 44 45 47 48 49 50
32 27 23 25 27 28 29 27 27 28 28 28 28 28 27 26 25 25 26 26 25 24 25 26 25 24 23 24 24 25 25 26 25 25 24 24 25 25 23 23 22 22 22 23 24 25 25 25 26 27 28 30 31 32 32 32 32 33 33 33 32 32 32 32 31 31 33 35 35 35 35 36 38 39 40 41 42 43 43 44 45 46 47 49 50
34 30 25 25 26 27 27 26 27 29 29 29 29 29 28 27 26 25 25 25 25 25 25 25 25 25 25 26 26 27 27 28 27 26 26 26 27 27 26 26 25 25 26 26 27 27 27 27 27 27 29 30 31 31 31 32 32 32 32 32 32 32 32 33 33 32 33 35 37 37 37 38 40 40 40 42 43 44 46 46 46 45 45 47 47
36 34 28 26 26 26 27 28 28 29 29 29 30 30 29 26 25 24 24 24 25 26 27 26 26 26 27 27 27 28 29 29 29 28 28 29 30 29 29 29 29 29 28 27 28 28 29 29 29 29 30 31 32 32 32 32 32 32 31 31 32 32 32 32 32 33 35 37 38 39 38 39 42 42 42 44 47 49 50 51 50 49 49 50 52
38 37 30 26 25 26 28 30 30 28 29 29 29 29 28 26 24 24 24 24 25 27 28 28 28 28 28 28 29 29 29 30 31 30 30 30 30 29 30 30 30 29 29 29 30 31 31 30 30 31 33 33 34 34 34 34 33 33 33 33 33 33 33 33 33 35 37 39 41 42 40 41 44 45 46 48 51 53 54 55 55 55 56 57 59
38 38 31 26 25 27 30 32 30 28 28 29 29 29 28 27 26 24 25 26 26 26 27 28 28 29 29 29 29 29 30 31 32 32 31 30 30 29 30 30 30 31 32 33 33 33 32 32 33 34 35 34 35 35 35 35 35 35 35 35 35 36 36 36 37 38 40 42 44 45 45 46 48 50 51 52 54 55 56 57 58 60 60 62 63
36 40 34 27 26 29 33 33 30 29 29 29 29 30 31 30 29 27 26 26 27 26 27 27 28 28 28 29 29 29 30 31 33 33 32 32 31 31 31 32 33 34 34 35 35 35 35 35 36 37 36 36 36 36 36 36 36 36 37 37 38 39 40 40 41 42 44 45 47 49 50 51 53 54 54 55 56 57 58 60 61 62 63 65 67
38 43 38 30 28 32 34 32 30 30 30 29 29 30 31 32 31 29 27 27 27 27 26 27 28 29 29 30 31 31 30 31 33 33 34 33 33 33 33 32 33 34 35 36 37 37 37 38 39 39 38 38 38 37 37 37 38 38 39 40 40 41 42 44 45 46 49 51 52 53 54 54 55 56 57 57 58 59 61 62 64 65 67 68 69
42 44 38 32 32 33 32 30 30 30 30 30 30 31 32 32 32 31 29 29 28 27 27 28 29 29 30 30 31 32 32 32 32 33 33 32 32 32 32 32 33 35 36 37 38 38 39 40 39 39 39 39 39 38 38 39 40 41 41 42 43 44 46 48 49 51 53 54 55 55 56 57 57 58 60 61 61 62 64 66 67 68 70 71 72
Wind_Direction
249 247 249 254 260 264 269 272 275 275 272 272 274 278 285 285 277 275 272 269 264 259 261 244 236 248 263 280 290 292 292 295 299 301 299 299 300 300 298 297 293 288 286 282 276 267 260 253 246 242 243 246 249 251 251 251 250 248 246 245 245 248 251 256 260 264 268 270 272 274 276 277 279 280 282 283 285 286 286 287 288 288 287 286 286
250 247 248 251 255 260 263 265 268 270 269 271 274 279 285 279 271 272 270 269 267 265 262 231 220 240 256 275 287 289 290 292 297 302 304 304 304 304 303 302 297 293 292 290 283 270 260 252 246 243 242 242 244 246 248 249 249 248 246 245 246 248 250 253 256 259 263 267 270 273 275 277 280 283 286 288 290 291 292 294 294 294 294 293 292
251 246 244 246 251 254 256 257 262 265 267 272 274 275 276 270 269 269 266 268 268 267 256 225 216 237 249 265 282 286 287 289 295 302 303 303 305 306 305 303 301 299 299 300 294 276 259 250 245 244 243 243 243 243 243 245 246 246 247 248 249 250 251 253 255 259 262 266 270 273 276 279 283 286 288 290 292 294 295 296 297 297 297 297 296
246 242 241 244 249 250 249 251 257 261 265 268 267 266 263 262 264 263 262 263 264 265 252 227 223 244 254 268 285 288 285 287 298 307 305 304 309 308 306 305 305 306 305 306 304 284 259 248 244 244 243 243 243 242 242 243 244 245 247 249 251 253 254 256 259 263 266 269 272 275 278 280 281 283 285 287 289 291 292 294 295 296 297 297 296
239 239 243 247 248 247 247 251 257 261 260 254 255 260 256 253 256 258 257 253 256 261 252 235 234 249 262 278 289 286 283 291 303 309 305 307 311 307 305 307 309 314 311 308 308 292 264 250 245 244 243 242 241 240 241 241 242 244 245 247 250 253 255 258 261 265 268 270 272 274 275 276 277 279 280 281 282 283 284 286 288 289 291 291 292
237 241 247 250 246 245 248 255 260 259 250 241 245 255 254 254 254 252 251 246 249 256 254 246 244 250 261 275 280 278 282 291 299 304 306 309 310 305 306 310 312 318 319 314 309 298 274 254 245 242 239 237 237 238 239 240 240 241 242 244 246 249 252 255 258 261 263 265 267 269 271 271 272 272 271 272 273 275 278 282 286 291 294 295 295
237 243 251 252 244 242 247 254 256 251 240 235 242 250 253 257 255 249 246 247 249 253 253 249 246 251 260 269 273 273 279 286 291 300 308 310 310 308 307 312 315 319 327 327 317 300 276 257 242 237 234 231 231 234 237 237 236 237 238 240 243 246 250 253 256 259 261 264 266 268 268 267 267 267 269 271 276 282 288 295 304 311 315 316 315
237 245 251 249 240 239 243 244 241 237 232 233 240 248 250 252 255 250 244 245 249 248 247 243 242 249 258 266 271 270 274 278 286 301 309 310 312 312 309 314 317 318 325 326 317 289 261 249 233 225 223 222 222 224 229 230 231 233 235 239 243 248 253 255 258 260 262 264 265 266 267 270 273 275 278 283 291 299 307 315 322 328 332 336 340
236 244 247 242 237 240 238 227 225 226 229 234 239 243 245 245 248 250 245 245 246 240 236 235 240 247 253 263 268 267 270 274 284 300 306 305 310 311 306 310 311 315 325 325 317 287 253 237 222 213 210 211 213 216 220 224 227 231 237 242 248 253 257 259 259 260 261 261 263 265 268 272 276 279 287 298 306 311 314 319 326 332 338 344 350
235 240 243 241 237 239 233 222 221 221 227 240 242 238 243 245 241 245 249 246 238 230 226 230 239 245 251 260 266 263 263 271 281 293 298 297 302 304 299 299 297 309 329 330 321 297 251 230 217 208 204 205 206 208 213 218 225 235 242 247 252 256 259 260 259 257 255 254 256 260 262 263 265 273 286 298 304 308 312 319 326 333 339 343 347
233 236 239 240 235 233 231 226 222 218 227 244 244 238 243 244 238 242 247 240 230 226 225 230 238 245 250 255 261 258 257 266 275 283 289 286 290 295 286 287 291 300 317 316 311 299 245 225 217 208 204 205 207 209 213 218 225 234 242 248 253 256 256 255 253 250 248 248 251 253 253 251 256 265 276 285 293 301 309 318 324 328 333 336 339
230 232 233 235 233 230 229 226 219 215 229 245 242 238 243 242 240 243 242 235 230 228 230 238 242 243 248 253 255 252 251 258 266 275 279 274 279 280 260 271 288 289 295 299 296 285 228 218 217 210 204 206 211 218 225 228 229 232 237 242 244 247 246 242 243 246 249 251 254 257 255 254 258 261 264 269 277 288 299 307 312 316 321 325 328
225 227 228 229 228 228 226 221 213 213 229 242 237 235 241 242 242 242 239 234 231 229 234 244 246 245 249 251 251 247 246 253 259 267 271 268 272 269 260 273 283 275 273 281 280 265 220 211 210 207 206 210 217 229 238 239 235 231 234 239 236 234 239 241 243 247 252 258 260 260 259 257 257 259 261 266 274 284 292 298 304 309 315 320 323
221 224 226 227 225 223 221 214 210 216 228 235 234 235 240 241 240 239 236 234 233 232 236 242 246 249 252 249 248 244 243 249 256 265 269 270 273 269 269 277 275 263 251 254 262 248 221 202 197 200 206 214 224 232 237 235 228 221 222 231 233 230 235 240 245 246 250 256 259 258 258 256 255 259 264 271 280 288 292 297 302 307 313 319 320
221 226 227 230 227 220 215 210 214 223 228 230 233 236 239 239 238 239 237 234 234 237 241 244 245 248 250 248 246 245 245 249 256 266 270 271 274 271 270 270 265 255 245 244 248 234 215 198 191 198 206 214 221 224 225 222 218 217 216 222 232 240 240 238 243 247 246 249 252 254 254 257 260 265 269 275 281 284 290 293 297 304 312 314 313
224 230 230 231 226 213 208 210 218 226 225 224 228 234 239 239 238 238 238 238 239 243 245 247 248 248 249 247 245 246 249 253 259 268 272 273 275 272 265 256 253 255 248 247 249 236 219 212 211 213 212 212 214 219 222 220 220 222 221 221 230 241 244 241 242 245 245 245 248 250 253 257 260 263 266 269 273 275 281 287 291 302 308 309 309
223 228 229 227 218 207 205 209 215 220 221 221 224 232 238 238 238 238 238 240 243 246 248 249 249 249 250 249 246 247 250 257 263 268 271 273 274 272 264 251 252 256 247 246 251 244 233 229 230 227 220 218 219 224 227 225 225 227 227 228 230 236 243 244 244 244 243 245 247 247 247 249 252 256 260 263 267 271 276 281 290 301 307 308 308
221 224 226 220 213 209 207 207 210 214 219 222 224 230 235 237 238 239 238 240 243 246 248 250 250 249 250 249 247 246 248 255 262 266 268 270 270 269 264 255 255 253 239 238 245 243 241 239 235 230 226 226 226 228 230 228 229 231 233 234 232 235 243 248 250 249 246 245 244 244 243 245 251 258 265 270 275 278 281 286 295 305 309 309 307
222 223 222 214 208 208 206 206 210 213 217 223 226 229 233 235 237 238 237 238 241 245 248 250 250 248 248 248 244 242 245 252 259 263 265 266 266 263 258 255 256 249 237 237 241 239 242 241 233 228 228 230 229 229 232 232 234 235 238 240 238 239 244 247 249 248 248 246 245 245 247 252 259 267 275 282 287 289 292 297 304 308 307 305 304
224 222 216 207 203 203 204 209 214 216 218 223 227 230 232 233 235 237 237 238 241 245 248 250 249 247 245 244 241 241 242 247 252 256 259 262 263 259 253 250 250 247 240 240 242 242 242 238 231 227 228 229 229 230 233 236 238 239 241 244 245 246 247 249 249 248 248 248 248 249 254 261 271 280 287 290 294 296 299 303 305 304 302 300 300
221 217 210 204 202 205 210 214 217 218 221 224 227 230 232 234 236 238 238 240 243 247 248 249 249 246 243 241 240 241 241 243 247 249 252 256 258 259 255 248 245 245 243 241 243 245 243 239 233 230 230 231 231 234 237 240 242 242 243 244 245 247 248 249 249 249 250 250 253 257 263 270 276 281 287 293 297 300 301 301 300 298 297 296 296
216 213 211 209 210 213 216 217 217 219 222 225 228 231 233 234 237 239 240 241 244 247 248 248 247 245 242 239 238 240 240 241 243 245 248 251 253 255 255 251 246 245 243 242 243 244 243 241 238 235 234 236 239 241 243 245 246 246 246 246 247 249 250 251 251 251 251 252 257 264 271 275 276 277 282 288 293 297 297 297 295 295 294 293 293
214 213 215 217 218 218 218 218 218 219 223 228 231 233 235 236 238 239 241 242 245 248 248 246 245 244 242 239 238 238 239 240 241 242 245 248 249 250 250 249 246 244 243 242 242 243 243 243 242 242 242 245 248 248 247 249 249 249 249 250 252 254 255 255 254 253 252 254 258 265 271 274 276 278 280 283 286 288 291 292 293 292 290 289 291
214 214 217 220 221 219 219 220 220 221 225 231 233 235 237 238 239 240 242 244 246 246 245 243 242 241 242 240 239 239 238 239 239 241 243 245 248 249 248 246 244 242 242 241 240 241 242 243 244 247 251 253 252 251 249 249 249 250 252 254 257 260 260 259 257 255 253 253 256 262 267 271 275 278 281 282 284 285 286 287 286 285 284 285 287
214 214 216 218 219 220 223 224 223 223 227 232 234 235 236 238 240 240 241 244 246 245 242 240 239 239 240 241 241 240 240 240 239 241 243 246 249 249 247 244 243 242 242 242 240 239 240 241 243 248 252 253 251 249 248 246 248 251 254 259 262 263 263 261 257 253 251 252 256 261 267 271 275 279 280 281 282 282 281 280 280 279 280 282 284
219 218 217 217 220 223 225 225 225 226 230 232 233 234 235 237 240 241 241 243 245 244 242 240 240 240 241 242 243 242 242 241 241 242 244 247 249 248 245 243 242 242 242 242 239 238 239 242 245 248 249 249 248 246 245 245 247 251 255 260 262 263 262 259 255 251 250 253 258 263 267 272 276 279 280 281 281 281 281 280 280 280 280 281 283
227 227 225 224 225 226 225 224 226 229 232 234 234 234 235 236 239 241 243 243 243 242 242 242 243 244 245 245 245 244 244 243 243 244 244 247 248 246 242 241 241 241 242 242 241 241 244 248 250 250 247 246 246 246 245 245 247 250 254 258 259 260 259 257 255 252 252 255 260 265 270 274 278 280 282 283 284 284 284 284 283 282 281 281 281
235 234 233 232 231 229 227 227 229 233 235 236 236 235 235 235 238 241 243 244 243 242 242 243 245 247 248 249 249 249 248 246 245 246 245 246 246 244 241 240 240 242 243 244 244 245 247 249 252 251 248 246 246 246 246 246 246 247 250 253 255 256 256 256 256 255 256 260 263 267 271 275 278 281 283 285 286 286 286 285 284 283 282 281 281
240 239 238 237 234 233 232 232 233 235 236 236 235 235 235 235 237 241 244 244 243 244 245 245 246 248 250 252 253 254 253 251 249 248 247 246 243 241 240 240 242 243 244 245 245 246 247 247 249 249 248 248 247 247 246 245 245 245 246 248 251 253 254 255 255 256 258 261 264 268 271 274 278 281 284 286 286 286 286 285 284 283 283 283 284
240 241 240 238 235 235 235 235 233 234 236 236 234 233 234 235 237 240 243 244 245 247 248 248 248 248 251 254 256 258 257 255 251 249 248 246 243 241 240 242 244 245 245 245 246 247 247 245 245 246 247 247 247 247 246 245 244 243 244 246 248 250 251 252 254 256 258 261 264 266 269 273 277 280 283 285 285 285 285 284 284 284 285 285 285
237 239 239 238 236 236 236 235 232 233 235 234 230 230 233 235 237 240 242 244 246 248 249 250 251 251 253 256 259 260 259 255 251 249 249 248 246 245 245 246 247 247 246 246 247 249 248 246 246 246 246 245 245 245 244 244 243 244 245 246 248 249 251 253 254 255 257 259 261 264 267 272 275 279 282 283 284 284 284 284 284 285 286 287 288
238 238 237 237 238 237 236 234 234 234 234 232 229 229 232 235 238 241 243 245 247 248 250 251 252 253 255 257 259 259 257 254 251 250 250 251 250 249 249 250 250 250 249 246 246 248 250 251 251 250 250 248 247 245 244 244 245 245 247 248 249 251 252 253 253 254 255 257 260 263 267 271 274 278 280 281 282 283 283 284 284 285 287 288 289
239 239 238 240 239 237 235 235 236 237 235 233 232 232 233 235 239 243 246 248 249 250 250 251 252 254 255 257 257 256 254 254 254 253 252 253 252 251 251 253 254 255 254 250 246 246 249 253 254 253 254 252 250 249 247 247 247 247 249 250 251 253 254 254 255 256 257 259 261 264 267 270 274 275 276 277 279 280 282 282 283 284 286 287 287
239 240 242 244 242 237 233 234 238 241 238 234 234 235 236 238 241 246 249 251 252 251 251 251 253 254 255 256 254 252 252 255 255 254 254 253 252 252 252 254 256 258 258 254 248 246 247 251 253 254 255 255 253 252 251 251 251 251 252 254 255 256 257 258 259 259 260 262 263 265 267 269 270 271 272 273 275 277 279 281 282 283 284 284 284
242 242 243 245 243 236 230 233 239 242 240 237 236 236 237 239 243 247 250 253 254 253 251 252 253 255 255 254 252 250 251 254 255 254 254 252 250 250 250 252 255 258 259 256 252 249 249 251 254 256 257 257 256 256 255 255 256 256 257 258 259 260 261 262 262 262 262 262 263 264 265 266 267 268 269 271 273 275 277 279 280 281 282 282 283
244 242 243 245 245 235 229 232 240 242 243 241 239 239 240 241 243 247 251 254 254 253 252 252 253 254 254 253 250 250 252 254 255 255 255 252 249 249 251 252 253 255 257 257 255 254 254 256 258 260 260 260 259 258 258 258 259 260 261 261 262 262 262 263 264 264 264 264 264 264 265 266 267 268 270 272 273 275 277 278 279 281 281 282 283
243 239 239 242 241 235 231 233 238 244 248 246 241 240 240 241 244 247 251 254 254 253 251 251 252 252 251 250 249 251 254 254 255 256 255 251 249 251 253 255 255 255 257 259 259 259 261 262 264 264 263 262 261 260 260 261 262 263 264 264 264 264 264 265 266 266 266 266 266 266 267 268 269 271 273 274 276 278 279 280 281 281 282 283 284
244 239 237 238 238 236 234 235 239 244 247 243 240 241 240 241 245 248 252 254 253 251 250 250 251 250 249 250 252 254 254 252 251 252 251 250 251 253 257 260 261 259 258 260 262 263 263 263 263 263 263 262 262 262 263 263 264 264 264 264 265 266 266 267 267 267 268 268 268 268 269 270 271 273 275 276 278 280 280 281 282 283 284 285 285
243 241 239 238 236 235 234 236 239 241 242 241 240 241 242 243 247 250 253 253 251 250 250 250 250 249 249 249 250 252 252 250 249 248 250 252 254 255 258 259 259 258 257 258 260 262 263 263 264 265 265 266 265 266 266 266 267 267 268 269 269 270 269 269 269 270 270 269 269 270 271 273 275 277 278 280 281 282 282 283 284 285 286 286 285
241 240 238 236 234 232 233 237 239 239 241 242 240 240 242 245 249 252 252 250 250 249 250 250 248 247 248 248 251 252 248 245 246 248 252 255 255 255 255 254 255 256 257 259 261 263 265 267 269 270 271 271 270 270 270 270 270 271 272 273 273 272 271 271 272 272 272 272 272 273 275 276 277 278 279 280 281 281 282 283 284 285 285 285 285
241 240 236 234 235 233 232 234 236 239 243 243 239 238 242 246 248 250 250 249 250 250 249 249 247 246 247 249 252 250 243 239 245 251 255 257 256 254 252 252 254 256 259 262 263 265 266 268 269 271 272 273 273 274 274 274 273 273 274 273 272 272 272 272 272 272 273 274 275 277 278 278 278 279 280 281 281 280 280 281 283 284 284 285 285
236 239 236 234 238 238 236 233 234 239 243 241 240 241 245 249 248 248 249 249 249 249 248 246 245 245 248 249 249 245 241 245 251 252 254 256 256 255 253 252 254 256 259 262 264 267 268 269 270 271 272 273 274 275 276 277 278 278 278 277 277 277 277 276 275 274 275 276 277 279 280 280 281 282 284 284 284 284 285 287 288 288 289 289 288
229 234 237 238 241 241 238 235 235 238 238 236 240 245 248 249 248 247 248 248 248 248 247 245 243 243 246 248 247 244 244 248 252 253 256 260 262 263 261 259 259 260 262 264 265 267 269 271 272 274 275 276 276 277 277 278 280 281 282 281 280 280 280 279 279 280 280 280 281 282 281 281 282 284 285 285 286 287 288 290 291 292 293 292 290
225 228 237 242 244 241 235 233 234 234 233 234 240 244 246 245 244 246 248 247 246 246 246 245 244 242 243 244 245 246 248 252 255 259 263 266 267 267 265 264 265 267 269 270 270 271 271 273 275 277 278 279 279 279 280 279 279 279 279 279 278 278 279 280 281 282 282 282 282 282 280 280 281 282 283 283 284 285 285 286 289 290 291 291 289
220 226 240 246 245 240 233 232 234 232 232 235 240 243 244 242 240 242 246 245 243 244 246 248 247 245 244 245 246 249 252 255 259 262 264 265 265 265 266 267 269 271 273 275 276 277 277 278 278 278 280 280 280 279 278 277 275 274 274 274 274 275 276 277 279 279 279 278 278 278 278 279 281 282 284 285 285 285 285 285 286 287 287 288 286
221 228 242 246 244 239 232 234 237 234 233 236 239 240 241 240 239 241 243 242 241 243 246 248 250 250 249 249 249 251 254 257 260 262 263 263 264 266 268 270 271 273 276 277 278 279 280 281 281 283 286 286 284 282 279 277 276 275 275 274 274 274 274 274 276 276 276 277 278 279 280 281 282 284 285 285 284 285 285 285 285 284 284 283 281
225 229 239 247 243 234 230 234 238 237 236 237 238 239 241 242 241 242 244 243 242 243 246 247 249 251 252 252 253 255 257 260 262 263 263 264 266 268 271 272 274 277 280 282 283 283 282 280 280 285 288 288 285 283 280 279 279 279 279 278 277 277 277 277 278 279 280 282 283 285 285 285 285 286 285 283 284 285 286 286 287 286 285 284 282
228 227 234 246 244 233 229 234 238 240 241 240 239 241 245 247 247 245 245 245 245 246 247 248 249 251 253 254 256 258 261 262 264 265 265 266 269 273 276 279 281 283 285 286 287 285 281 278 280 284 285 285 284 281 277 276 276 276 276 275 275 276 277 278 281 283 284 286 287 289 290 290 290 290 289 288 288 289 289 289 289 289 288 288 287
229 226 230 243 244 234 230 233 237 241 244 244 241 242 246 249 250 248 246 246 247 247 248 250 251 252 254 256 258 258 260 262 263 264 265 267 272 277 280 281 282 283 284 285 285 285 282 281 283 284 283 284 284 281 276 273 273 272 273 274 276 277 279 282 285 287 289 290 290 291 292 292 292 292 292 291 291 291 290 290 290 290 289 289 288
228 224 229 239 241 232 228 232 237 242 245 246 245 245 246 249 251 250 249 249 248 247 248 249 251 253 255 257 258 258 259 261 264 265 265 267 273 278 279 279 278 279 281 282 283 283 283 282 284 284 283 283 283 281 277 274 273 274 276 278 280 282 285 287 288 290 292 293 293 293 293 293 293 293 292 292 292 292 291 291 290 290 289 288 288
228 224 227 234 234 228 228 233 239 242 244 245 245 245 246 248 249 249 250 250 248 247 249 251 253 255 256 256 257 259 260 260 263 265 267 269 273 274 274 275 276 277 278 277 275 275 276 278 282 284 282 281 280 279 277 275 276 278 279 281 282 284 287 289 291 293 294 294 294 294 294 294 293 293 293 293 294 293 293 292 291 290 290 289 288
Height
5821 5821 5821 5822 5822 5823 5824 5824 5824 5825 5825 5825 5825 5826 5827 5827 5826 5825 5825 5825 5826 5827 5828 5828 5827 5826 5825 5825 5825 5825 5824 5824 5823 5823 5823 5822 5821 5820 5819 5818 5817 5816 5816 5815 5814 5814 5814 5814 5815 5815 5815 5815 5816 5816 5817 5817 5817 5818 5818 5819 5819 5819 5819 5819 5819 5819 5819 5819 5819 5819 5819 5819 5819 5818 5818 5818 5818 5818 5817 5817 5817 5816 5816 5815 5815
5819 5820 5820 5820 5821 5821 5822 5822 5823 5823 5824 5824 5825 5826 5827 5827 5825 5825 5825 5824 5825 5827 5827 5827 5826 5826 5825 5825 5824 5824 5824 5823 5823 5823 5822 5822 5821 5820 5819 5817 5816 5815 5814 5814 5813 5813 5813 5813 5813 5813 5814 5814 5814 5815 5816 5816 5816 5817 5817 5817 5818 5818 5818 5818 5818 5818 5818 5818 5818 5818 5818 5818 5818 5818 5817 5817 5817 5817 5816 5816 5815 5815 5814 5814 5814
5817 5818 5818 5819 5819 5820 5820 5821 5821 5822 5823 5824 5824 5825 5826 5826 5825 5825 5824 5824 5825 5826 5826 5826 5826 5825 5825 5824 5824 5824 5823 5823 5823 5822 5822 5821 5820 5819 5818 5817 5815 5814 5813 5813 5812 5811 5811 5811 5812 5812 5813 5813 5813 5814 5814 5815 5815 5815 5816 5816 5817 5817 5817 5817 5817 5817 5817 5817 5817 5817 5817 5817 5817 5817 5817 5816 5816 5816 5815 5815 5814 5814 5813 5813 5812
5815 5816 5817 5817 5818 5818 5818 5819 5819 5821 5822 5822 5822 5823 5824 5825 5824 5824 5824 5824 5824 5825 5825 5825 5825 5824 5824 5824 5823 5823 5823 5823 5822 5822 5821 5821 5820 5819 5817 5816 5815 5814 5813 5812 5811 5810 5810 5810 5811 5811 5812 5812 5813 5813 5813 5814 5814 5814 5815 5815 5816 5816 5816 5816 5817 5817 5817 5817 5817 5817 5817 5817 5816 5816 5816 5815 5815 5815 5814 5814 5813 5813 5812 5812 5811
5814 5815 5815 5816 5816 5816 5817 5817 5818 5819 5820 5820 5821 5822 5823 5823 5823 5823 5823 5824 5824 5824 5824 5824 5824 5823 5823 5823 5822 5822 5822 5822 5821 5821 5820 5820 5819 5818 5817 5816 5815 5814 5813 5812 5811 5810 5810 5810 5810 5810 5811 5811 5812 5812 5813 5813 5813 5814 5814 5814 5815 5815 5815 5815 5816 5816 5816 5816 5816 5816 5816 5816 5816 5815 5815 5815 5814 5814 5813 5813 5812 5812 5811 5811 5810
5812 5813 5813 5814 5815 5815 5814 5815 5816 5818 5818 5818 5820 5821 5822 5823 5823 5823 5823 5823 5823 5823 5823 5823 5823 5822 5822 5822 5822 5821 5821 5821 5821 5820 5820 5819 5819 5818 5817 5815 5814 5813 5812 5812 5811 5810 5810 5809 5809 5810 5810 5810 5811 5812 5812 5813 5813 5813 5813 5813 5814 5814 5814 5814 5815 5815 5815 5815 5815 5816 5815 5815 5815 5815 5815 5814 5814 5813 5813 5812 5812 5811 5810 5810 5809
5811 5812 5812 5813 5813 5813 5812 5813 5815 5816 5816 5817 5818 5820 5821 5822 5822 5822 5823 5823 5822 5822 5822 5822 5822 5821 5821 5821 5821 5821 5821 5821 5820 5820 5819 5819 5818 5817 5816 5815 5814 5813 5812 5811 5810 5810 5809 5809 5809 5809 5810 5810 5811 5811 5812 5812 5812 5813 5813 5813 5813 5813 5813 5814 5814 5814 5814 5814 5815 5815 5815 5815 5814 5814 5814 5813 5813 5812 5812 5811 5811 5810 5810 5809 5808
5810 5810 5811 5811 5812 5811 5811 5812 5813 5814 5815 5815 5817 5819 5820 5820 5821 5821 5822 5822 5822 5821 5821 5821 5821 5821 5821 5820 5820 5820 5820 5820 5820 5819 5819 5818 5817 5816 5816 5815 5814 5813 5812 5811 5810 5809 5809 5808 5808 5809 5809 5810 5810 5811 5812 5812 5812 5812 5812 5812 5813 5813 5813 5813 5813 5813 5814 5814 5814 5814 5814 5814 5814 5813 5813 5813 5812 5812 5811 5811 5810 5810 5809 5808 5807
5808 5808 5809 5810 5810 5809 5809 5810 5812 5813 5813 5814 5816 5817 5818 5819 5820 5821 5821 5821 5821 5820 5821 5821 5821 5821 5820 5820 5819 5819 5819 5819 5819 5818 5818 5817 5817 5816 5815 5814 5814 5813 5811 5810 5809 5809 5808 5808 5808 5808 5809 5810 5810 5811 5811 5811 5812 5812 5812 5812 5812 5813 5813 5813 5813 5813 5813 5813 5813 5813 5813 5813 5813 5813 5812 5812 5812 5811 5811 5810 5810 5809 5809 5808 5807
5806 5807 5807 5808 5809 5808 5808 5809 5811 5812 5812 5813 5814 5816 5817 5818 5819 5820 5820 5820 5820 5820 5821 5821 5820 5820 5819 5819 5819 5818 5818 5818 5818 5817 5817 5816 5816 5815 5815 5814 5813 5812 5811 5810 5809 5808 5807 5807 5808 5808 5809 5809 5810 5810 5810 5811 5811 5811 5811 5812 5812 5812 5812 5813 5813 5812 5812 5812 5812 5812 5812 5812 5812 5812 5812 5812 5811 5811 5810 5810 5809 5809 5808 5808 5807
5804 5805 5806 5806 5807 5807 5807 5808 5809 5811 5812 5812 5813 5814 5815 5816 5817 5818 5819 5819 5819 5820 5820 5820 5820 5819 5818 5818 5818 5818 5817 5817 5817 5816 5816 5816 5815 5815 5814 5813 5813 5812 5810 5809 5808 5807 5807 5807 5808 5808 5808 5809 5809 5810 5810 5810 5811 5811 5811 5811 5811 5812 5812 5812 5812 5812 5812 5812 5812 5812 5812 5812 5812 5812 5811 5811 5811 5810 5810 5809 5809 5808 5808 5807 5806
5802 5803 5804 5805 5805 5806 5806 5806 5808 5810 5811 5811 5812 5813 5814 5815 5816 5817 5818 5818 5819 5819 5819 5819 5819 5818 5817 5817 5817 5817 5817 5816 5816 5816 5816 5815 5815 5814 5814 5813 5812 5811 5810 5809 5808 5807 5807 5807 5807 5807 5808 5809 5809 5810 5810 5810 5810 5810 5810 5810 5811 5811 5811 5811 5811 5811 5812 5811 5811 5811 5811 5811 5811 5811 5811 5811 5810 5810 5809 5808 5808 5808 5807 5806 5806
5801 5802 5803 5803 5804 5805 5805 5805 5807 5809 5810 5811 5811 5812 5813 5814 5815 5816 5816 5817 5818 5818 5818 5818 5818 5817 5817 5816 5816 5816 5816 5816 5815 5815 5815 5815 5815 5814 5814 5813 5812 5811 5810 5809 5808 5807 5807 5807 5807 5807 5807 5808 5809 5809 5810 5810 5810 5810 5810 5810 5810 5810 5811 5811 5811 5811 5811 5811 5811 5811 5811 5811 5810 5810 5810 5810 5809 5809 5808 5808 5807 5807 5806 5806 5806
5799 5800 5801 5802 5803 5803 5803 5804 5806 5808 5809 5810 5810 5811 5812 5812 5814 5814 5815 5816 5816 5816 5816 5817 5816 5816 5816 5815 5815 5815 5815 5815 5815 5815 5815 5815 5814 5814 5813 5813 5812 5811 5810 5809 5808 5808 5807 5807 5807 5807 5807 5808 5808 5809 5809 5809 5810 5810 5810 5810 5810 5810 5810 5811 5811 5811 5811 5811 5811 5811 5810 5810 5810 5810 5809 5809 5809 5808 5808 5807 5807 5806 5806 5805 5805
5798 5799 5800 5801 5801 5801 5802 5803 5804 5807 5808 5809 5809 5809 5810 5811 5812 5813 5814 5814 5814 5815 5815 5815 5815 5815 5815 5815 5814 5814 5814 5814 5814 5814 5814 5814 5814 5814 5813 5812 5812 5811 5810 5810 5809 5808 5807 5807 5807 5807 5807 5808 5808 5809 5809 5809 5810 5810 5810 5809 5809 5809 5810 5810 5810 5810 5810 5810 5810 5810 5810 5809 5809 5809 5809 5808 5808 5808 5807 5807 5806 5806 5805 5805 5805
5796 5797 5798 5799 5799 5800 5800 5801 5803 5805 5806 5807 5807 5808 5808 5810 5811 5811 5812 5812 5812 5813 5814 5814 5814 5814 5814 5813 5813 5813 5813 5814 5814 5814 5814 5814 5814 5813 5813 5812 5811 5811 5811 5810 5809 5809 5808 5808 5808 5807 5807 5808 5808 5808 5809 5809 5809 5809 5810 5809 5809 5810 5810 5810 5810 5810 5810 5810 5809 5809 5809 5809 5809 5808 5808 5808 5807 5807 5807 5806 5806 5805 5805 5804 5804
5794 5795 5796 5797 5798 5798 5799 5800 5801 5803 5804 5805 5806 5806 5807 5808 5809 5810 5810 5810 5811 5811 5812 5813 5813 5813 5812 5812 5812 5812 5812 5812 5812 5812 5813 5813 5813 5812 5812 5812 5811 5811 5811 5810 5810 5809 5809 5808 5808 5808 5808 5808 5808 5808 5808 5809 5809 5809 5809 5809 5810 5810 5809 5809 5809 5809 5809 5809 5809 5809 5809 5809 5808 5808 5808 5807 5807 5806 5806 5805 5805 5804 5804 5804 5803
5792 5793 5794 5795 5796 5797 5797 5799 5800 5801 5802 5803 5804 5805 5805 5807 5808 5808 5809 5809 5809 5810 5810 5811 5811 5811 5811 5810 5810 5810 5811 5811 5811 5811 5811 5811 5812 5811 5811 5811 5811 5810 5810 5810 5809 5809 5809 5808 5808 5808 5808 5808 5808 5808 5808 5808 5808 5808 5809 5809 5809 5809 5808 5808 5808 5808 5808 5809 5808 5808 5808 5808 5808 5807 5807 5807 5806 5806 5805 5805 5804 5804 5803 5803 5802
5790 5791 5792 5793 5794 5795 5796 5797 5798 5799 5800 5801 5802 5803 5804 5805 5806 5807 5807 5808 5808 5808 5809 5809 5810 5810 5810 5809 5809 5809 5809 5810 5810 5810 5810 5810 5810 5810 5810 5810 5810 5809 5809 5809 5809 5808 5808 5808 5807 5807 5807 5807 5807 5807 5807 5807 5807 5808 5808 5808 5808 5808 5808 5808 5808 5808 5808 5808 5808 5808 5808 5808 5807 5807 5807 5806 5806 5805 5805 5804 5803 5803 5802 5802 5802
5788 5789 5790 5791 5793 5794 5795 5796 5796 5798 5799 5800 5801 5802 5803 5804 5804 5805 5806 5806 5806 5807 5807 5807 5808 5808 5808 5808 5808 5808 5808 5808 5809 5809 5809 5809 5809 5809 5809 5809 5808 5808 5808 5808 5808 5808 5808 5807 5807 5806 5806 5806 5806 5806 5806 5807 5807 5807 5807 5807 5807 5807 5807 5807 5807 5807 5807 5808 5808 5807 5807 5807 5807 5806 5806 5806 5805 5805 5804 5803 5803 5802 5802 5801 5801
5786 5788 5789 5790 5791 5792 5793 5794 5795 5796 5797 5799 5800 5800 5801 5802 5803 5803 5804 5804 5805 5805 5805 5806 5806 5807 5807 5807 5807 5807 5807 5807 5808 5808 5808 5808 5808 5808 5808 5807 5807 5807 5807 5807 5807 5807 5807 5806 5806 5806 5806 5806 5805 5805 5806 5806 5806 5806 5807 5806 5806 5806 5806 5807 5807 5807 5807 5807 5807 5807 5807 5806 5806 5806 5805 5805 5804 5804 5803 5803 5802 5801 5801 5800 5800
5785 5786 5787 5789 5789 5790 5791 5792 5793 5794 5795 5797 5798 5799 5800 5800 5801 5802 5802 5803 5803 5803 5804 5804 5805 5805 5806 5806 5806 5806 5806 5807 5807 5807 5807 5807 5807 5807 5806 5806 5806 5806 5806 5806 5806 5806 5806 5806 5806 5806 5806 5806 5806 5805 5805 5805 5806 5806 5806 5806 5805 5806 5806 5806 5806 5806 5806 5807 5807 5806 5806 5806 5805 5805 5804 5804 5803 5803 5802 5802 5801 5800 5800 5800 5799
5783 5785 5786 5787 5788 5789 5790 5791 5792 5792 5793 5794 5795 5796 5798 5798 5799 5800 5801 5801 5802 5802 5802 5803 5803 5804 5804 5804 5805 5805 5805 5806 5806 5806 5806 5806 5805 5805 5805 5804 5804 5804 5804 5805 5805 5805 5805 5806 5806 5806 5806 5806 5806 5805 5805 5805 5805 5805 5805 5805 5805 5805 5805 5805 5805 5806 5806 5806 5806 5806 5806 5805 5805 5804 5804 5803 5802 5802 5801 5801 5800 5800 5799 5799 5798
5781 5783 5784 5785 5786 5787 5788 5788 5789 5790 5791 5792 5793 5794 5795 5796 5797 5799 5799 5800 5800 5801 5801 5801 5802 5802 5803 5803 5803 5804 5804 5804 5804 5804 5804 5804 5804 5803 5803 5803 5802 5802 5802 5803 5803 5804 5804 5805 5805 5805 5805 5805 5805 5805 5805 5804 5804 5804 5804 5804 5804 5804 5805 5805 5805 5805 5805 5805 5805 5805 5805 5805 5804 5804 5803 5802 5801 5801 5800 5799 5799 5799 5798 5798 5797
5779 5780 5781 5783 5784 5784 5785 5786 5787 5788 5789 5790 5791 5792 5793 5794 5795 5796 5798 5798 5799 5799 5800 5800 5801 5801 5801 5801 5802 5802 5802 5803 5803 5803 5803 5803 5802 5802 5801 5801 5800 5800 5800 5801 5801 5802 5803 5803 5803 5804 5804 5804 5804 5804 5803 5803 5803 5803 5803 5803 5803 5804 5804 5804 5804 5804 5804 5804 5804 5804 5804 5804 5803 5803 5802 5802 5801 5800 5799 5798 5798 5797 5797 5796 5796
5777 5778 5779 5781 5782 5782 5783 5784 5785 5786 5787 5788 5789 5790 5791 5792 5792 5794 5795 5796 5797 5798 5798 5799 5799 5800 5800 5800 5800 5800 5801 5801 5801 5801 5801 5801 5801 5800 5799 5798 5798 5798 5798 5799 5800 5800 5801 5801 5802 5802 5802 5802 5802 5802 5802 5802 5802 5802 5803 5803 5803 5803 5803 5803 5803 5803 5803 5803 5803 5803 5803 5802 5802 5802 5801 5800 5800 5799 5798 5797 5796 5796 5795 5794 5794
5775 5776 5778 5779 5780 5780 5781 5782 5783 5783 5784 5786 5787 5788 5788 5789 5790 5791 5793 5794 5795 5795 5796 5797 5797 5798 5798 5798 5798 5799 5799 5799 5800 5800 5800 5799 5799 5798 5797 5796 5796 5796 5796 5797 5798 5799 5799 5800 5800 5800 5801 5801 5801 5801 5801 5801 5801 5802 5802 5802 5802 5802 5802 5802 5802 5802 5802 5802 5802 5802 5801 5801 5800 5800 5800 5799 5798 5797 5797 5796 5795 5794 5793 5792 5792
5773 5774 5775 5777 5778 5778 5779 5780 5781 5782 5783 5784 5785 5786 5786 5787 5788 5789 5790 5791 5792 5793 5794 5795 5795 5796 5796 5796 5797 5797 5797 5798 5798 5798 5798 5797 5797 5796 5795 5795 5794 5794 5795 5796 5797 5797 5798 5798 5799 5799 5799 5799 5800 5800 5800 5801 5801 5801 5801 5801 5801 5801 5801 5801 5801 5801 5801 5801 5800 5800 5800 5799 5799 5798 5797 5797 5796 5795 5795 5794 5793 5792 5791 5791 5790
5770 5771 5772 5774 5775 5776 5777 5778 5779 5780 5781 5782 5783 5783 5784 5785 5786 5787 5788 5789 5790 5791 5792 5793 5794 5794 5794 5794 5795 5795 5795 5796 5796 5797 5796 5795 5795 5794 5793 5793 5793 5793 5794 5795 5796 5796 5797 5797 5797 5797 5798 5798 5798 5799 5799 5799 5800 5800 5800 5799 5799 5799 5799 5799 5799 5799 5799 5799 5799 5798 5798 5797 5796 5796 5795 5795 5794 5793 5793 5792 5791 5790 5789 5789 5788
5768 5768 5769 5771 5772 5774 5774 5776 5777 5778 5778 5779 5780 5781 5782 5783 5784 5785 5786 5787 5788 5789 5790 5791 5792 5792 5793 5793 5793 5793 5793 5794 5795 5795 5794 5793 5793 5792 5792 5791 5791 5791 5792 5794 5794 5795 5795 5796 5796 5796 5797 5797 5797 5797 5798 5798 5798 5798 5798 5798 5798 5798 5797 5797 5797 5797 5797 5797 5797 5796 5796 5795 5794 5794 5793 5792 5792 5791 5790 5790 5789 5788 5787 5787 5786
5764 5765 5766 5768 5769 5771 5772 5773 5774 5775 5776 5777 5778 5779 5780 5781 5782 5783 5784 5784 5785 5786 5787 5788 5789 5790 5791 5791 5791 5791 5792 5792 5793 5793 5792 5791 5791 5791 5791 5790 5790 5790 5791 5792 5793 5793 5793 5794 5794 5795 5795 5795 5795 5796 5796 5796 5796 5796 5796 5796 5796 5796 5796 5796 5795 5795 5795 5795 5794 5794 5793 5792 5792 5791 5791 5790 5789 5789 5788 5787 5786 5786 5785 5784 5784
5761 5762 5764 5766 5767 5768 5769 5770 5771 5772 5773 5774 5776 5776 5777 5778 5779 5781 5781 5782 5783 5784 5785 5786 5787 5788 5789 5789 5789 5789 5790 5790 5791 5791 5790 5790 5790 5790 5789 5789 5788 5788 5790 5791 5792 5792 5791 5792 5792 5793 5793 5793 5793 5793 5794 5794 5794 5794 5794 5794 5794 5794 5794 5794 5793 5793 5793 5792 5792 5791 5790 5790 5789 5789 5788 5788 5787 5786 5785 5784 5783 5783 5782 5781 5781
5758 5759 5761 5763 5764 5765 5767 5768 5768 5769 5771 5772 5773 5774 5775 5776 5777 5778 5779 5780 5781 5782 5783 5784 5784 5785 5786 5787 5787 5788 5788 5788 5789 5789 5789 5788 5788 5788 5788 5787 5786 5786 5788 5789 5790 5790 5789 5790 5790 5791 5791 5791 5791 5791 5791 5791 5791 5792 5792 5792 5792 5792 5792 5791 5791 5791 5790 5790 5789 5789 5788 5788 5787 5786 5785 5785 5784 5783 5782 5781 5780 5779 5779 5778 5777
5755 5757 5758 5759 5760 5762 5764 5765 5765 5767 5769 5770 5771 5772 5773 5774 5775 5776 5777 5778 5779 5780 5780 5781 5782 5783 5784 5785 5785 5786 5786 5786 5787 5787 5787 5787 5786 5786 5786 5785 5784 5785 5786 5787 5788 5788 5788 5788 5788 5789 5789 5788 5789 5789 5789 5789 5789 5789 5789 5789 5789 5790 5790 5789 5789 5788 5788 5787 5787 5786 5785 5785 5784 5783 5782 5781 5780 5779 5779 5778 5777 5776 5775 5774 5773
5752 5753 5755 5756 5757 5759 5761 5762 5763 5765 5766 5767 5769 5770 5771 5772 5773 5774 5775 5775 5776 5777 5778 5779 5779 5780 5781 5782 5783 5783 5784 5784 5785 5785 5785 5785 5784 5784 5784 5783 5783 5783 5783 5784 5785 5786 5786 5786 5786 5786 5786 5786 5786 5786 5786 5786 5786 5787 5787 5787 5787 5787 5787 5786 5786 5785 5785 5784 5783 5782 5782 5781 5780 5779 5778 5777 5776 5776 5775 5774 5773 5772 5771 5770 5769
5749 5750 5751 5753 5755 5756 5758 5759 5761 5763 5764 5765 5766 5767 5768 5769 5770 5771 5772 5773 5774 5774 5775 5776 5777 5777 5778 5779 5780 5781 5781 5782 5783 5782 5782 5783 5782 5782 5782 5781 5781 5781 5781 5781 5782 5783 5783 5783 5784 5784 5784 5784 5784 5784 5784 5784 5784 5784 5784 5784 5784 5784 5783 5783 5782 5782 5781 5780 5779 5778 5777 5776 5776 5775 5774 5774 5773 5772 5771 5770 5769 5768 5767 5766 5765
5747 5747 5748 5750 5752 5753 5755 5757 5759 5761 5762 5763 5763 5764 5765 5766 5767 5768 5769 5770 5771 5772 5772 5773 5774 5774 5775 5776 5777 5778 5779 5779 5780 5780 5780 5780 5780 5780 5780 5779 5779 5779 5779 5779 5779 5780 5781 5781 5781 5781 5781 5781 5781 5781 5781 5781 5781 5781 5781 5780 5780 5780 5779 5779 5778 5778 5777 5776 5775 5774 5773 5773 5772 5772 5771 5770 5770 5769 5767 5766 5765 5763 5762 5761 5760
5744 5745 5746 5747 5749 5751 5752 5754 5757 5758 5759 5759 5759 5760 5762 5763 5764 5765 5767 5768 5768 5768 5769 5770 5771 5772 5773 5773 5774 5774 5775 5776 5777 5777 5777 5777 5778 5778 5778 5778 5778 5777 5777 5777 5777 5778 5778 5778 5778 5778 5778 5778 5778 5778 5778 5778 5778 5777 5776 5776 5776 5776 5776 5775 5774 5774 5773 5772 5771 5770 5770 5769 5769 5768 5767 5767 5766 5765 5763 5762 5760 5759 5757 5756 5755
5741 5742 5743 5745 5747 5749 5750 5752 5754 5754 5755 5755 5756 5758 5759 5760 5761 5763 5764 5765 5765 5765 5766 5767 5769 5769 5770 5771 5771 5770 5771 5772 5773 5774 5774 5774 5775 5776 5776 5776 5776 5776 5776 5776 5776 5776 5776 5776 5775 5775 5775 5776 5775 5775 5775 5775 5774 5773 5772 5773 5772 5772 5771 5771 5770 5769 5768 5767 5767 5766 5766 5766 5765 5764 5764 5763 5762 5760 5758 5756 5755 5754 5752 5750 5749
5738 5739 5741 5743 5745 5746 5748 5749 5750 5750 5751 5752 5754 5756 5757 5757 5759 5760 5761 5761 5762 5763 5764 5765 5766 5767 5767 5767 5768 5768 5768 5769 5770 5770 5771 5771 5772 5773 5774 5774 5774 5774 5774 5774 5774 5774 5773 5773 5773 5772 5772 5772 5772 5772 5772 5771 5770 5769 5769 5769 5769 5767 5767 5767 5766 5765 5763 5763 5763 5763 5763 5762 5761 5760 5760 5759 5758 5755 5753 5751 5750 5748 5747 5745 5744
5735 5737 5739 5740 5742 5743 5744 5745 5746 5747 5748 5750 5752 5753 5754 5755 5756 5757 5757 5758 5759 5760 5761 5763 5764 5764 5764 5765 5765 5765 5765 5766 5767 5768 5768 5768 5769 5770 5771 5771 5771 5772 5771 5771 5771 5771 5771 5771 5770 5770 5769 5769 5768 5767 5767 5766 5766 5765 5765 5766 5765 5764 5763 5764 5763 5761 5760 5759 5759 5759 5758 5757 5756 5755 5755 5754 5753 5750 5748 5747 5745 5744 5741 5739 5738
5732 5734 5736 5737 5738 5740 5740 5742 5744 5745 5746 5747 5749 5750 5751 5752 5753 5754 5754 5755 5756 5757 5758 5760 5761 5762 5762 5762 5763 5763 5763 5763 5764 5764 5764 5764 5765 5766 5768 5768 5769 5769 5769 5768 5768 5768 5767 5767 5767 5767 5766 5765 5764 5764 5763 5762 5761 5761 5761 5761 5761 5760 5759 5759 5759 5758 5756 5756 5755 5755 5754 5752 5751 5750 5749 5748 5746 5743 5742 5741 5739 5737 5735 5733 5731
5729 5730 5733 5734 5735 5736 5737 5739 5742 5742 5743 5744 5746 5747 5748 5749 5750 5751 5751 5752 5753 5754 5755 5756 5757 5758 5759 5760 5760 5760 5761 5760 5760 5761 5761 5761 5761 5763 5764 5765 5766 5766 5765 5765 5765 5764 5764 5763 5763 5763 5762 5761 5760 5760 5759 5759 5758 5757 5756 5756 5756 5755 5755 5754 5754 5753 5752 5750 5750 5750 5749 5747 5746 5745 5744 5742 5740 5738 5736 5734 5732 5730 5728 5726 5724
5726 5727 5729 5730 5731 5733 5734 5737 5739 5739 5740 5741 5742 5743 5745 5746 5747 5748 5748 5749 5750 5751 5752 5753 5754 5755 5756 5757 5757 5757 5757 5757 5757 5758 5758 5759 5759 5759 5760 5761 5762 5762 5762 5761 5761 5761 5761 5760 5760 5759 5759 5757 5757 5756 5756 5756 5755 5754 5753 5753 5752 5752 5751 5750 5750 5750 5748 5746 5745 5745 5744 5742 5740 5740 5739 5737 5735 5733 5731 5729 5727 5725 5723 5720 5717
5724 5724 5725 5727 5728 5729 5732 5734 5735 5736 5737 5738 5739 5740 5742 5743 5744 5745 5745 5746 5746 5748 5749 5750 5751 5752 5753 5754 5755 5755 5755 5755 5755 5755 5756 5756 5756 5756 5757 5757 5757 5757 5758 5757 5757 5756 5756 5756 5756 5756 5755 5754 5753 5753 5753 5752 5752 5751 5751 5750 5749 5749 5748 5747 5747 5746 5744 5742 5741 5740 5739 5737 5735 5735 5734 5731 5729 5727 5726 5723 5722 5720 5718 5715 5712
5721 5721 5722 5724 5725 5726 5729 5730 5731 5733 5734 5734 5735 5737 5738 5740 5741 5742 5742 5743 5744 5744 5746 5747 5748 5749 5750 5751 5751 5752 5752 5752 5752 5752 5753 5753 5753 5753 5753 5753 5753 5753 5753 5753 5752 5752 5751 5751 5750 5750 5750 5750 5749 5748 5748 5747 5747 5746 5746 5746 5745 5744 5744 5743 5743 5741 5739 5737 5736 5735 5735 5732 5729 5729 5729 5726 5722 5721 5719 5717 5716 5714 5713 5710 5708
5718 5719 5720 5721 5722 5723 5725 5727 5728 5730 5731 5731 5732 5733 5735 5736 5738 5739 5740 5740 5741 5742 5743 5744 5745 5745 5746 5747 5747 5748 5748 5748 5747 5748 5749 5749 5749 5750 5750 5749 5749 5749 5749 5748 5748 5747 5747 5746 5746 5746 5745 5745 5744 5743 5742 5741 5741 5741 5740 5740 5739 5738 5738 5737 5737 5735 5733 5731 5729 5728 5728 5727 5723 5722 5722 5719 5716 5715 5713 5711 5709 5707 5705 5703 5701
5715 5716 5717 5718 5719 5720 5722 5723 5725 5726 5727 5728 5729 5729 5731 5732 5734 5736 5737 5738 5739 5739 5740 5740 5741 5742 5742 5743 5744 5744 5744 5744 5743 5743 5744 5744 5744 5745 5745 5745 5745 5744 5744 5743 5743 5743 5742 5742 5742 5741 5741 5740 5739 5738 5738 5737 5736 5736 5735 5734 5733 5733 5732 5732 5731 5729 5727 5725 5723 5721 5721 5720 5717 5715 5714 5711 5709 5708 5705 5703 5701 5699 5697 5694 5691
5712 5713 5713 5714 5716 5717 5718 5720 5721 5723 5724 5725 5726 5727 5727 5728 5730 5732 5733 5734 5735 5736 5737 5737 5737 5738 5738 5739 5740 5740 5741 5740 5739 5739 5739 5739 5740 5740 5740 5740 5740 5739 5739 5738 5737 5737 5737 5737 5737 5736 5736 5735 5734 5734 5733 5732 5731 5730 5730 5729 5728 5727 5726 5725 5724 5722 5720 5718 5717 5715 5714 5712 5710 5707 5706 5704 5702 5701 5698 5696 5693 5690 5688 5685 5682
5709 5709 5709 5711 5712 5713 5714 5716 5718 5719 5720 5722 5723 5724 5725 5725 5726 5727 5729 5730 5732 5733 5734 5734 5734 5734 5735 5735 5736 5736 5736 5736 5736 5735 5735 5736 5736 5735 5735 5735 5735 5734 5734 5733 5732 5732 5732 5731 5731 5731 5730 5729 5729 5728 5727 5726 5726 5725 5724 5723 5722 5721 5720 5718 5717 5715 5713 5710 5709 5708 5706 5705 5703 5700 5698 5696 5695 5693 5690 5687 5684 5681 5678 5675 5672
5704 5705 5706 5707 5708 5709 5711 5712 5714 5715 5716 5718 5719 5720 5721 5722 5723 5724 5725 5726 5727 5729 5730 5730 5731 5731 5731 5731 5732 5731 5731 5732 5732 5732 5732 5732 5732 5732 5731 5731 5730 5730 5729 5729 5728 5728 5727 5726 5726 5725 5725 5724 5723 5722 5722 5721 5721 5720 5719 5718 5716 5715 5714 5712 5710 5709 5706 5703 5701 5700 5698 5697 5695 5692 5690 5688 5687 5685 5682 5678 5675 5672 5669 5665 5662